Regional Weather Roundup
Issued by NWS

Home | Current Version | Previous Version | Graphics & Text | Print | Product List | Glossary On
Versions: 1 2 3 4 5 6 7 8 9 10 11 12 13 14 15 16 17 18 19 20 21 22 23 24 25 26 27 28 29 30 31 32 33 34 35 36 37 38 39 40 41 42 43 44 45 46 47 48 49 50
000
ASUS44 KMEG 270810
RWRTN
TENNESSEE HOURLY STATE WEATHER ROUNDUP
NATIONAL WEATHER SERVICE MEMPHIS TN
300 AM CDT MON APR 27 2015

TNZ002-004-019-021-049-052-054-088>092-270900-
WEST TENNESSEE

CITY           SKY/WX    TMP DP  RH WIND       PRES   REMARKS
MEMPHIS INTL   CLOUDY    54  47  77 NE7       29.90S
NWS MEMPHIS      N/A     52 N/A N/A MISG        N/A
JACKSON        PTCLDY    46  42  86 NE9       29.91S
DYERSBURG      CLEAR     50  30  46 NE12      29.94F
UNION CITY     CLEAR     45  32  61 N6        29.93S
PARIS          CLEAR     43  37  81 NE6       29.93F
LEXINGTON      CLEAR     43  41  93 N3        29.90S
SAVANNAH       CLEAR     45  32  61 CALM      29.90S
$$

TNZ008-025-027-028-033-062-065-066-270900-
NORTH MIDDLE TENNESSEE

CITY           SKY/WX    TMP DP  RH WIND       PRES   REMARKS
NASHVILLE      CLEAR     46  40  79 N6        29.91R
CLARKSVILLE    CLEAR     45  39  79 N7        29.93S
SMYRNA         CLEAR     47  43  86 N9        29.92R
COOKEVILLE     CLOUDY    43  43 100 CALM      29.88R VSB 0
CROSSVILLE     CLEAR     44  41  89 N5        29.87R
$$

TNZ061-075-076-078-094-096-097-270900-
SOUTH MIDDLE TENNESSEE

CITY           SKY/WX    TMP DP  RH WIND       PRES   REMARKS
FAYETTEVILLE   CLEAR     43  43 100 CALM      29.87R
TULLAHOMA      CLEAR     45  43  93 CALM      29.88R
WINCHESTER     MOCLDY    43  41  93 CALM      29.88R
MCMINNVILLE    CLOUDY    39  39 100 CALM      29.88R VSB 1/2
COLUMBIA       CLEAR     43  32  65 CALM      29.89R
SHELBYVILLE    CLEAR     41  41 100 N6        29.89S
$$

TNZ017-018-042-046-047-270900-
NORTHEAST TENNESSEE

CITY           SKY/WX    TMP DP  RH WIND       PRES   REMARKS
TRI CITIES     CLEAR     43  41  93 CALM      29.82S
ELIZABETHTON   SUNNY     43  39  87 CALM      29.82S
$$

TNZ012-013-036-069-073-074-270900-
CENTRAL EAST TENNESSEE

CITY           SKY/WX    TMP DP  RH WIND       PRES   REMARKS
KNOXVILLE      CLOUDY    51  43  74 N7        29.83S
OAK RIDGE      FOG       44  42  93 CALM      29.87R VSB 1/2
GATLINBURG     CLOUDY    52  46  82 CALM      29.83S
MORRISTOWN     PTSUNNY   48  43  81 N3        29.84S
$$

TNZ083-085-099-270900-
SOUTHEAST TENNESSEE

CITY           SKY/WX    TMP DP  RH WIND       PRES   REMARKS
CHATTANOOGA    CLEAR     48  45  89 CALM      29.85S
$$

SKY/WX REPORTED AS FAIR MEANS FEW OR NO CLOUDS BELOW
12 THOUSAND FEET.




USA.gov is the U.S. government's official web portal to all federal, state and local government web resources and services.